Location: Gisborne
(38.6530°S, 178.0040°E)
Time: 13:48:57
(UTC+12:00)

ISS - Visible Passes

Search period start: 17 May 2021 00:00
Search period end: 27 May 2021 00:00
Orbit: 417 x 422 km, 51.6° (Epoch: 16 May)

Date Brightness Start Highest point End Pass type
(mag) Time Alt. Az. Time Alt. Az. Time Alt. Az.
19 May -0.8 06:26:41 10° N 06:29:20 21° NE 06:32:01 10° E visible
20 May -0.4 05:40:37 10° NNE 05:42:04 12° NE 05:43:31 10° ENE visible
21 May -3.3 06:27:37 10° NW 06:31:00 69° NE 06:34:26 10° SE visible
22 May -2.2 05:40:26 10° NNW 05:43:36 37° NE 05:46:49 10° ESE visible
23 May -1.4 04:55:41 20° NE 04:56:16 21° NE 04:58:57 10° E visible
23 May -3.2 06:29:38 10° WNW 06:32:54 40° SSW 06:36:11 10° SE visible
24 May -3.8 05:44:15 38° WNW 05:45:22 67° SW 05:48:48 10° SE visible
25 May -1.9 04:59:28 29° ESE 04:59:28 29° ESE 05:01:20 10° SE visible
25 May -2.1 06:32:28 10° WSW 06:35:01 19° SSW 06:37:37 10° SSE visible
26 May -2.5 05:47:27 27° SSW 05:47:27 27° SSW 05:50:22 10° SSE visible
